Tracking 22223 objects as of 26-Jan-2021
HD Live streaming from Space Station
objects crossing your sky now

INMARSAT 2-F3

Track INMARSAT 2-F3 now!
INMARSAT 2-F3 is classified as:


NORAD ID: 21814
Int'l Code: 1991-084B
Perigee: 36,943.6 km
Apogee: 37,089.7 km
Inclination: 12.5 °
Period: 1,499.0 minutes
Semi major axis: 43387 km
RCS: 12.5892 m2 (large)
Launch date: December 16, 1991
Source: International Mobile Satellite Organization (INMARSAT) (IM)
Launch site: FRENCH GUIANA (FRGUI)

Broadcasting, business services, mobile communications; demand-assigned L-band transponders; spare satellite co-located with Inmarsat 3s.
aabbcc
Your satellite tracking list
Your tracking list is empty




NASA's NSSDC Master Catalog

Two Line Element Set (TLE):
1 21814U 91084B   21025.65269953 -.00000115  00000-0  00000-0 0  9991
2 21814  12.5321  25.0646 0016840  25.9579 331.5316  0.96062447104253
Source of the keplerian elements: AFSPC